Weather History for Walnut Ridge, AR

Change the Weather History Date:

Saturday, March 23, 2013

  Actual Average Record
Temperature  
Mean Temperature 42 °F -  
Max Temperature 48 °F 59 °F 80 °F (2011)
Min Temperature 37 °F 41 °F 26 °F (2002)
Degree Days  
Heating Degree Days 22    
Moisture  
Dew Point 38 °F    
Average Humidity 82    
Maximum Humidity 93    
Minimum Humidity 71    
Precipitation  
Precipitation 0.16 in - - ()
Sea Level Pressure  
Sea Level Pressure 29.87 in    
Wind  
Wind Speed 10 mph (NNE)    
Max Wind Speed 20 mph    
Max Gust Speed 23 mph    
Visibility 10 miles    
Events      
Averages and records for this station are not official NWS values.
T = Trace of Precipitation, MM = Missing Value Source: NWS Daily Summary

Daily Weather History Graph

Daily Weather History Graph

Search for Another Location

Airport:

Trip Planner

Search our weather history database for the weather conditions in past years. The results will help you decide how hot, cold, wet, or windy it might be!

Date:

Astronomy

Mar. 23, 2013 Rise Set
Actual Time 7:02 AM CDT 7:18 PM CDT
Civil Twilight 6:36 AM CDT 7:43 PM CDT
Nautical Twilight 6:06 AM CDT 8:14 PM CDT
Astronomical Twilight 5:36 AM CDT 8:44 PM CDT
Moon 3:50 PM CDT (3/23) 4:32 AM CDT (3/23)
Length of Visible Light 13h 07m
Length of Day
12h 15m
Waxing Gibbous, 85% of the Moon is Illuminated
Mar 23
Waxing Gibbous
Mar 27
Full
Apr 2
Last Quarter
Apr 10
New
Apr 18
First Quarter

Hourly Weather History & Observations

Time (CDT) Temp. Windchill Dew Point Humidity Pressure Visibility Wind Dir Wind Speed Gust Speed Precip Events Conditions
12:15 AM 39.2 °F 33.0 °F 33.8 °F 81% 29.98 in 10.0 mi NNE 9.2 mph - N/A   Overcast
12:35 AM 39.2 °F 33.0 °F 33.8 °F 81% 29.97 in 10.0 mi NNE 9.2 mph - N/A   Overcast
12:55 AM 39.2 °F 32.5 °F 33.8 °F 81% 29.96 in 10.0 mi NNE 10.4 mph - N/A   Overcast
1:15 AM 39.2 °F 32.0 °F 33.8 °F 81% 29.94 in 10.0 mi NNE 11.5 mph - N/A   Overcast
1:35 AM 39.2 °F 32.0 °F 33.8 °F 81% 29.94 in 10.0 mi NE 11.5 mph - N/A   Overcast
1:55 AM 39.2 °F 34.2 °F 33.8 °F 81% 29.94 in 10.0 mi NNE 6.9 mph - N/A   Overcast
2:15 AM 39.2 °F 33.6 °F 33.8 °F 81% 29.94 in 10.0 mi North 8.1 mph - N/A   Overcast
2:35 AM 37.4 °F 31.4 °F 33.8 °F 87% 29.93 in 10.0 mi North 8.1 mph - N/A   Overcast
2:55 AM 37.4 °F 29.8 °F 33.8 °F 87% 29.93 in 10.0 mi North 11.5 mph - N/A   Overcast
3:15 AM 39.2 °F 33.0 °F 33.8 °F 81% 29.93 in 10.0 mi NNE 9.2 mph - N/A   Overcast
3:35 AM 39.2 °F 32.5 °F 33.8 °F 81% 29.92 in 10.0 mi NNE 10.4 mph - N/A   Overcast
3:55 AM 39.2 °F 33.0 °F 33.8 °F 81% 29.92 in 10.0 mi NE 9.2 mph - N/A   Overcast
4:15 AM 39.2 °F 33.6 °F 33.8 °F 81% 29.92 in 10.0 mi NNE 8.1 mph - N/A   Overcast
4:35 AM 39.2 °F 33.0 °F 33.8 °F 81% 29.93 in 10.0 mi NNE 9.2 mph - N/A   Overcast
4:55 AM 39.2 °F 34.2 °F 33.8 °F 81% 29.92 in 10.0 mi NNE 6.9 mph - N/A   Overcast
5:15 AM 39.2 °F 35.0 °F 33.8 °F 81% 29.94 in 10.0 mi NNE 5.8 mph - N/A   Overcast
5:35 AM 39.2 °F 32.5 °F 33.8 °F 81% 29.94 in 10.0 mi NNE 10.4 mph - N/A   Overcast
5:55 AM 39.2 °F 33.0 °F 33.8 °F 81% 29.94 in 10.0 mi NNE 9.2 mph - N/A   Overcast
6:15 AM 39.2 °F 34.2 °F 33.8 °F 81% 29.94 in 10.0 mi NNE 6.9 mph - N/A   Overcast
6:35 AM 39.2 °F 33.0 °F 33.8 °F 81% 29.95 in 10.0 mi NNE 9.2 mph - N/A   Overcast
6:55 AM 39.2 °F 34.2 °F 33.8 °F 81% 29.95 in 10.0 mi North 6.9 mph - N/A   Overcast
7:15 AM 39.2 °F 32.5 °F 33.8 °F 81% 29.95 in 10.0 mi NNE 10.4 mph - N/A   Overcast
7:35 AM 39.2 °F 32.0 °F 33.8 °F 81% 29.94 in 10.0 mi NNE 11.5 mph - N/A   Overcast
7:55 AM 39.2 °F 32.5 °F 33.8 °F 81% 29.94 in 10.0 mi NNE 10.4 mph - N/A   Overcast
8:15 AM 39.2 °F 33.0 °F 33.8 °F 81% 29.95 in 10.0 mi NNE 9.2 mph - N/A   Overcast
8:35 AM 39.2 °F 32.5 °F 33.8 °F 81% 29.95 in 10.0 mi NNE 10.4 mph - N/A   Overcast
8:55 AM 39.2 °F 33.0 °F 33.8 °F 81% 29.96 in 10.0 mi NNE 9.2 mph - N/A   Overcast
9:15 AM 39.2 °F 31.2 °F 33.8 °F 81% 29.96 in 10.0 mi NNE 13.8 mph - N/A   Overcast
9:35 AM 41.0 °F 33.5 °F 35.6 °F 81% 29.96 in 10.0 mi NNE 13.8 mph - N/A   Overcast
9:55 AM 41.0 °F 34.3 °F 35.6 °F 81% 29.97 in 10.0 mi NNE 11.5 mph - N/A   Overcast
10:15 AM 41.0 °F 34.3 °F 35.6 °F 81% 29.96 in 10.0 mi NE 11.5 mph - N/A   Overcast
10:35 AM 42.8 °F 36.2 °F 35.6 °F 76% 29.95 in 10.0 mi NE 12.7 mph - N/A   Overcast
10:55 AM 42.8 °F 34.5 °F 37.4 °F 81% 29.92 in 10.0 mi NE 18.4 mph - N/A   Overcast
11:15 AM 44.6 °F 37.4 °F 37.4 °F 76% 29.92 in 10.0 mi NE 16.1 mph 23.0 mph N/A   Overcast
11:35 AM 44.6 °F 38.1 °F 37.4 °F 76% 29.94 in 10.0 mi NE 13.8 mph - N/A   Overcast
11:55 AM 46.4 °F 39.5 °F 39.2 °F 76% 29.93 in 10.0 mi NE 17.3 mph - N/A   Overcast
12:15 PM 46.4 °F 39.0 °F 39.2 °F 76% 29.92 in 10.0 mi NE 19.6 mph - N/A   Scattered Clouds
12:35 PM 48.2 °F - 39.2 °F 71% 29.92 in 10.0 mi NNE 16.1 mph - N/A   Mostly Cloudy
1:15 PM 48.2 °F - 39.2 °F 71% 29.91 in 10.0 mi NE 13.8 mph - N/A   Overcast
1:35 PM 48.2 °F - 41.0 °F 76% 29.89 in 10.0 mi NE 18.4 mph - N/A   Overcast
1:55 PM 48.2 °F - 39.2 °F 71% 29.88 in 10.0 mi NE 15.0 mph - N/A   Mostly Cloudy
2:15 PM 48.2 °F - 39.2 °F 71% 29.87 in 10.0 mi NE 13.8 mph - N/A   Overcast
2:35 PM 46.4 °F 40.1 °F 41.0 °F 81% 29.85 in 10.0 mi NE 15.0 mph - N/A   Overcast
2:55 PM 46.4 °F 41.1 °F 42.8 °F 87% 29.85 in 10.0 mi NNE 11.5 mph - N/A   Overcast
3:15 PM 48.2 °F - 41.0 °F 76% 29.85 in 10.0 mi NE 10.4 mph - N/A   Overcast
3:35 PM 46.4 °F 40.1 °F 41.0 °F 81% 29.82 in 10.0 mi NE 15.0 mph - N/A   Overcast
3:55 PM 46.4 °F 39.8 °F 39.2 °F 76% 29.83 in 10.0 mi NNE 16.1 mph - N/A   Overcast
4:15 PM 46.4 °F 41.1 °F 39.2 °F 76% 29.82 in 10.0 mi NE 11.5 mph - N/A   Overcast
4:35 PM 46.4 °F 40.7 °F 39.2 °F 76% 29.80 in 10.0 mi NNE 12.7 mph - N/A   Overcast
4:55 PM 46.4 °F 40.4 °F 39.2 °F 76% 29.81 in 10.0 mi NNE 13.8 mph - N/A   Overcast
5:15 PM 46.4 °F 40.7 °F 39.2 °F 76% 29.81 in 10.0 mi NNE 12.7 mph - N/A   Overcast
5:35 PM 46.4 °F 41.5 °F 39.2 °F 76% 29.82 in 10.0 mi NNE 10.4 mph - N/A   Overcast
5:55 PM 46.4 °F 41.9 °F 39.2 °F 76% 29.80 in 10.0 mi NE 9.2 mph - N/A   Overcast
6:15 PM 46.4 °F 41.9 °F 41.0 °F 81% 29.79 in 10.0 mi NNE 9.2 mph - N/A   Overcast
6:35 PM 46.4 °F 41.5 °F 39.2 °F 76% 29.78 in 10.0 mi NNE 10.4 mph - 0.01 in   Overcast
6:55 PM 44.6 °F 38.8 °F 41.0 °F 87% 29.74 in 9.0 mi NE 11.5 mph - 0.01 in   Overcast
7:15 PM 44.6 °F 40.7 °F 41.0 °F 87% 29.76 in 9.0 mi NNE 6.9 mph - N/A   Overcast
7:35 PM 44.6 °F 40.7 °F 41.0 °F 87% 29.77 in 9.0 mi North 6.9 mph - 0.01 in   Overcast
7:55 PM 44.6 °F 40.2 °F 42.8 °F 93% 29.77 in 9.0 mi NE 8.1 mph - 0.02 in   Overcast
8:15 PM 44.6 °F 41.4 °F 42.8 °F 93% 29.77 in 6.0 mi NE 5.8 mph - 0.02 in   Overcast
8:35 PM 44.6 °F 40.7 °F 42.8 °F 93% 29.75 in 5.0 mi NE 6.9 mph - 0.04 in   Overcast
8:55 PM 44.6 °F 41.4 °F 42.8 °F 93% 29.77 in 5.0 mi North 5.8 mph - 0.05 in   Overcast
9:15 PM 44.6 °F 40.2 °F 42.8 °F 93% 29.74 in 4.0 mi NE 8.1 mph - 0.02 in   Overcast
9:36 PM 44.6 °F 39.2 °F 42.8 °F 93% 29.77 in 5.0 mi NNW 10.4 mph - 0.04 in   Overcast
10:15 PM 44.6 °F 39.2 °F 42.8 °F 93% 29.75 in 6.0 mi North 10.4 mph - 0.04 in   Overcast
10:35 PM 44.6 °F 39.7 °F 42.8 °F 93% 29.73 in 8.0 mi North 9.2 mph - 0.04 in   Overcast
10:55 PM 44.6 °F 38.8 °F 42.8 °F 93% 29.73 in 8.0 mi NNE 11.5 mph - 0.04 in   Overcast
11:15 PM 44.6 °F 39.2 °F 42.8 °F 93% 29.73 in 9.0 mi NNE 10.4 mph - N/A   Overcast
11:35 PM 46.4 °F 41.5 °F 42.8 °F 87% 29.72 in 10.0 mi NNE 10.4 mph - N/A   Overcast
11:55 PM 44.6 °F 39.2 °F 42.8 °F 93% 29.71 in 10.0 mi NNE 10.4 mph - N/A   Overcast